NOZ546 ENGM-ENZV

Flight info

Callsign NOZ546
Flight time 0h 42m
Altitude 34000
Route ATLAP DCT IPMOD DCT ROPNO
Aircraft B738/M-SADE3GHIJ1LRWXY/LB1

Departure

Time 2026-05-04 15:53
Airport Oslo-Gardermoen International Airport (ENGM)

Arrival

Time 2026-05-04 16:35
Airport Stavanger Airport, Sola (ENZV)
Time Latitude Longitude Altitude Speed Heading
2026-05-04 15:19 60.19532 11.09655 684 ft 0 kts 196°
2026-05-04 15:44 60.19535 11.09656 684 ft 3 kts 196°
2026-05-04 15:44 60.19560 11.09671 680 ft 4 kts 196°
2026-05-04 15:45 60.19574 11.09679 679 ft 0 kts 196°
2026-05-04 15:47 60.19573 11.09676 678 ft 1 kts 211°
2026-05-04 15:47 60.19575 11.09661 678 ft 1 kts 297°
2026-05-04 15:48 60.19600 11.09643 682 ft 8 kts 342°
2026-05-04 15:48 60.19660 11.09542 680 ft 13 kts 291°
2026-05-04 15:48 60.19710 11.09201 680 ft 13 kts 285°
2026-05-04 15:49 60.19737 11.09008 682 ft 16 kts 286°
2026-05-04 15:49 60.19770 11.08781 674 ft 13 kts 285°
2026-05-04 15:49 60.19830 11.08703 678 ft 11 kts 14°
2026-05-04 15:49 60.19907 11.08748 678 ft 13 kts 16°
2026-05-04 15:50 60.20016 11.08811 679 ft 19 kts 16°
2026-05-04 15:50 60.20156 11.08892 680 ft 22 kts 16°
2026-05-04 15:50 60.20299 11.08975 681 ft 21 kts 16°
2026-05-04 15:50 60.20441 11.09057 681 ft 22 kts 16°
2026-05-04 15:51 60.20570 11.09131 679 ft 12 kts 15°
2026-05-04 15:51 60.20634 11.09110 681 ft 10 kts 303°
2026-05-04 15:51 60.20658 11.08978 680 ft 11 kts 286°
2026-05-04 15:51 60.20681 11.08816 678 ft 13 kts 286°
2026-05-04 15:52 60.20702 11.08665 678 ft 6 kts 277°
2026-05-04 15:52 60.20685 11.08635 676 ft 3 kts 197°
2026-05-04 15:52 60.20587 11.08578 678 ft 42 kts 196°
2026-05-04 15:52 60.20079 11.08283 675 ft 107 kts 196°
2026-05-04 15:53 60.19197 11.07781 692 ft 156 kts 197°
2026-05-04 15:53 60.18150 11.07239 1443 ft 150 kts 202°
2026-05-04 15:53 60.17121 11.06540 2093 ft 164 kts 216°
2026-05-04 15:53 60.16299 11.04770 2403 ft 186 kts 242°
2026-05-04 15:54 60.15692 11.02276 2658 ft 213 kts 248°
2026-05-04 15:54 60.15069 10.99430 3010 ft 233 kts 251°
2026-05-04 15:54 60.14865 10.96168 3750 ft 238 kts 270°
2026-05-04 15:54 60.14902 10.92851 4676 ft 239 kts 270°
2026-05-04 15:55 60.14932 10.89476 5506 ft 241 kts 270°
2026-05-04 15:55 60.14956 10.86142 6488 ft 238 kts 269°
2026-05-04 15:55 60.14973 10.82779 7246 ft 243 kts 269°
2026-05-04 15:55 60.14984 10.79360 8078 ft 246 kts 269°
2026-05-04 15:56 60.14990 10.75959 8920 ft 248 kts 269°
2026-05-04 15:56 60.14994 10.72474 9728 ft 251 kts 269°
2026-05-04 15:56 60.14996 10.68883 10160 ft 267 kts 269°
2026-05-04 15:56 60.14994 10.64981 10343 ft 290 kts 270°
2026-05-04 15:57 60.14990 10.60802 10689 ft 305 kts 269°
2026-05-04 15:57 60.14983 10.56488 11325 ft 311 kts 269°
2026-05-04 15:57 60.14975 10.52200 12152 ft 311 kts 269°
2026-05-04 15:57 60.14964 10.47860 12997 ft 311 kts 269°
2026-05-04 15:58 60.14952 10.43485 13760 ft 315 kts 269°
2026-05-04 15:58 60.14939 10.39082 14569 ft 314 kts 269°
2026-05-04 15:58 60.14923 10.34712 15547 ft 311 kts 269°
2026-05-04 15:58 60.14907 10.30398 16502 ft 308 kts 269°
2026-05-04 15:59 60.14889 10.26108 17390 ft 307 kts 269°
2026-05-04 15:59 60.14870 10.21881 18191 ft 307 kts 269°
2026-05-04 15:59 60.14849 10.17567 18823 ft 309 kts 269°
2026-05-04 15:59 60.14826 10.13219 19380 ft 313 kts 269°
2026-05-04 16:00 60.14802 10.08816 19980 ft 316 kts 269°
2026-05-04 16:00 60.14776 10.04388 20582 ft 318 kts 269°
2026-05-04 16:00 60.14751 9.99978 21128 ft 322 kts 269°
2026-05-04 16:00 60.14722 9.95443 21610 ft 325 kts 269°
2026-05-04 16:01 60.14690 9.90892 22231 ft 327 kts 269°
2026-05-04 16:01 60.14633 9.86294 22795 ft 329 kts 266°
2026-05-04 16:01 60.14252 9.81764 23285 ft 335 kts 260°
2026-05-04 16:01 60.13632 9.77217 23727 ft 339 kts 256°
2026-05-04 16:02 60.12737 9.72798 24174 ft 346 kts 250°
2026-05-04 16:02 60.11623 9.68494 24644 ft 348 kts 248°
2026-05-04 16:02 60.09301 9.59755 25082 ft 361 kts 248°
2026-05-04 16:03 60.08127 9.55357 25556 ft 362 kts 248°
2026-05-04 16:03 60.06944 9.50932 26144 ft 359 kts 248°
2026-05-04 16:03 60.05768 9.46527 26754 ft 356 kts 248°
2026-05-04 16:03 60.04604 9.42163 27267 ft 356 kts 248°
2026-05-04 16:04 60.03439 9.37792 27754 ft 356 kts 248°
2026-05-04 16:04 60.01110 9.29070 28908 ft 353 kts 248°
2026-05-04 16:04 59.99948 9.24728 29351 ft 355 kts 248°
2026-05-04 16:05 59.98793 9.20416 29768 ft 356 kts 248°
2026-05-04 16:05 59.97625 9.16068 30245 ft 354 kts 248°
2026-05-04 16:05 59.95288 9.07392 30969 ft 356 kts 247°
2026-05-04 16:06 59.94107 9.03018 31287 ft 357 kts 247°
2026-05-04 16:06 59.90937 8.91318 31727 ft 364 kts 247°
2026-05-04 16:07 59.89343 8.85466 31664 ft 357 kts 246°
2026-05-04 16:08 59.84582 8.68065 31727 ft 362 kts 246°
2026-05-04 16:08 59.80997 8.55066 31582 ft 345 kts 246°
2026-05-04 16:09 59.78723 8.46848 30998 ft 333 kts 247°
2026-05-04 16:09 59.76525 8.38911 30316 ft 327 kts 247°
2026-05-04 16:10 59.74337 8.31060 29561 ft 322 kts 247°
2026-05-04 16:11 59.71187 8.19642 28448 ft 309 kts 248°
2026-05-04 16:11 59.70162 8.15910 28104 ft 305 kts 248°
2026-05-04 16:12 59.67162 8.05012 27035 ft 295 kts 248°
2026-05-04 16:12 59.64325 7.94229 25513 ft 295 kts 249°
2026-05-04 16:13 59.62453 7.86972 24629 ft 296 kts 249°
2026-05-04 16:13 59.60594 7.79827 24088 ft 287 kts 250°
2026-05-04 16:14 59.58791 7.72922 23165 ft 282 kts 250°
2026-05-04 16:14 59.56999 7.66080 22102 ft 277 kts 250°
2026-05-04 16:15 59.54370 7.56083 20831 ft 272 kts 249°
2026-05-04 16:16 59.52640 7.49531 20171 ft 268 kts 249°
2026-05-04 16:16 59.50078 7.39867 19201 ft 262 kts 249°
2026-05-04 16:17 59.48406 7.33586 18576 ft 255 kts 249°
2026-05-04 16:18 59.45981 7.24499 17636 ft 247 kts 249°
2026-05-04 16:18 59.45183 7.21516 17350 ft 244 kts 249°
2026-05-04 16:19 59.42857 7.12853 16464 ft 234 kts 249°
2026-05-04 16:19 59.41353 7.07253 15896 ft 238 kts 249°
2026-05-04 16:20 59.38903 6.98145 14983 ft 257 kts 248°
2026-05-04 16:20 59.37227 6.91967 14343 ft 257 kts 248°
2026-05-04 16:21 59.34733 6.82813 13390 ft 250 kts 248°
2026-05-04 16:22 59.33101 6.76835 12746 ft 246 kts 248°
2026-05-04 16:22 59.30705 6.68075 11890 ft 247 kts 248°
2026-05-04 16:23 59.28510 6.60073 11053 ft 252 kts 246°
2026-05-04 16:24 59.25179 6.48003 9823 ft 251 kts 246°
2026-05-04 16:25 59.23524 6.42037 9260 ft 247 kts 245°
2026-05-04 16:26 59.20314 6.30493 8117 ft 235 kts 245°
2026-05-04 16:26 59.17980 6.22134 7283 ft 234 kts 245°
2026-05-04 16:27 59.16426 6.16588 6739 ft 232 kts 245°
2026-05-04 16:28 59.14094 6.08281 5914 ft 233 kts 244°
2026-05-04 16:28 59.11792 6.00122 5144 ft 226 kts 245°
2026-05-04 16:29 59.08698 5.89179 4071 ft 241 kts 244°
2026-05-04 16:30 59.06373 5.81014 3704 ft 217 kts 245°
2026-05-04 16:31 59.04972 5.76099 3487 ft 202 kts 247°
2026-05-04 16:31 59.03533 5.68916 2976 ft 180 kts 253°
2026-05-04 16:32 59.01427 5.63875 2351 ft 178 kts 194°
2026-05-04 16:33 58.99016 5.63494 1996 ft 173 kts 192°
2026-05-04 16:33 58.96679 5.63515 1561 ft 159 kts 191°
2026-05-04 16:34 58.94520 5.63583 1141 ft 153 kts 190°
2026-05-04 16:34 58.93460 5.63609 893 ft 150 kts 188°
2026-05-04 16:35 58.90331 5.63719 280 ft 152 kts 183°
2026-05-04 16:35 58.87777 5.63780 32 ft 23 kts 179°
2026-05-04 16:36 58.87697 5.63767 32 ft 8 kts 221°
2026-05-04 16:36 58.87717 5.63538 32 ft 10 kts 287°
2026-05-04 16:37 58.87756 5.63319 28 ft 6 kts 314°
2026-05-04 16:37 58.87797 5.63290 29 ft 7 kts 357°
2026-05-04 16:37 58.87904 5.63337 30 ft 12 kts 19°
2026-05-04 16:38 58.87984 5.63072 26 ft 14 kts 287°
2026-05-04 16:39 58.88028 5.62727 24 ft 3 kts 15°
2026-05-04 16:39 58.88041 5.62735 25 ft 2 kts 16°
2026-05-04 16:40 58.88058 5.62745 25 ft 0 kts 16°